Location: Most
(50.5330°N, 13.6500°E)
Time: 07:00:15
(UTC+01:00)

N. Korean satellite - Pass Details

Date: 27 October 2021
Orbit: 446 x 495 km, 97.3° (Epoch: 04 December)

Event Time Altitude Azimuth Distance (km) Brightness Sun altitude
Rises 18:19:35 0° 200° (SSW) 2,541 10.7 -5.4°
Reaches altitude 10° 18:22:01 10° 218° (SW) 1,675 10.1 -5.8°
Maximum altitude 18:24:47 21° 268° (W) 1,170 9.8 -6.2°
Drops below altitude 10° 18:27:36 10° 318° (NW) 1,702 9.8 -6.6°
Sets 18:30:06 0° 335° (NNW) 2,595 10.4 -7.0°
